Terminal Aerodrome Forecast
Issued by NWS Portland, ME

Home | Current Version | Previous Version | Text Only | Print | Product List | Glossary On
Versions: 1 2 3 4 5 6 7 8 9 10 11 12 13 14 15 16 17 18
000
FTUS41 KGYX 272320
TAFCON
TAF
KCON 272320Z 2800/2824 33003KT P6SM OVC035
     FM280200 00000KT P6SM OVC020
     FM280600 VRB03KT 1 1/2SM -SHSN BR OVC009
     FM281200 34007KT 3/4SM -SHSN OVC009
     FM281500 33011G17KT 1 1/2SM -SHSN OVC015
     FM282100 32009KT P6SM OVC015=

USA.gov is the U.S. government's official web portal to all federal, state and local government web resources and services.